Total_Precipitation_Accumulation
2.23 2.18 2.05 2.07 2.05 2.01 1.90 1.76 1.62 1.55 1.43 1.29 1.15 1.12 1.09 1.04 0.99 0.99 1.00 1.00 1.05 1.10 1.15 1.26 1.36 1.41 1.52 1.60 1.66 1.68 1.75 1.79 1.78 1.65 1.54 1.54 1.49 1.48 1.52 1.39 1.30 1.22 1.17
1.87 1.90 1.93 1.91 1.85 1.78 1.61 1.48 1.36 1.22 1.11 1.04 0.97 0.97 0.94 0.89 0.88 0.85 0.81 0.81 0.83 0.87 0.93 1.02 1.10 1.13 1.22 1.25 1.34 1.41 1.46 1.52 1.58 1.67 1.72 1.64 1.55 1.53 1.44 1.30 1.13 1.00 0.98
1.66 1.63 1.73 1.72 1.60 1.49 1.39 1.32 1.21 1.08 1.02 1.00 0.94 0.88 0.85 0.81 0.76 0.72 0.70 0.67 0.64 0.67 0.73 0.80 0.87 0.91 0.94 0.96 1.02 1.08 1.17 1.27 1.44 1.54 1.59 1.60 1.56 1.57 1.55 1.29 1.13 1.11 0.87
1.62 1.64 1.62 1.56 1.45 1.39 1.26 1.08 0.99 0.91 0.95 1.00 0.91 0.83 0.75 0.71 0.66 0.67 0.70 0.67 0.62 0.60 0.62 0.66 0.70 0.71 0.70 0.73 0.76 0.83 0.94 1.14 1.31 1.41 1.38 1.38 1.43 1.38 1.45 1.36 1.24 1.14 0.97
1.62 1.56 1.48 1.42 1.37 1.32 1.23 1.11 0.99 0.89 0.83 0.84 0.80 0.76 0.71 0.63 0.59 0.61 0.62 0.61 0.59 0.54 0.52 0.52 0.52 0.54 0.56 0.57 0.57 0.67 0.82 1.03 1.15 1.25 1.28 1.21 1.20 1.21 1.24 1.18 1.18 1.14 1.00
1.47 1.42 1.31 1.26 1.30 1.24 1.20 1.12 1.03 0.92 0.82 0.80 0.77 0.72 0.66 0.56 0.55 0.53 0.48 0.51 0.53 0.53 0.50 0.43 0.40 0.40 0.43 0.45 0.48 0.55 0.67 0.79 0.90 1.01 1.08 1.10 1.09 1.08 1.14 1.15 1.14 1.14 1.09
1.37 1.30 1.29 1.26 1.21 1.17 1.04 0.98 0.99 0.96 0.81 0.71 0.67 0.62 0.60 0.56 0.50 0.43 0.43 0.49 0.54 0.55 0.53 0.52 0.43 0.35 0.42 0.46 0.47 0.52 0.55 0.59 0.69 0.84 0.95 0.97 0.98 1.05 1.16 1.16 1.16 1.14 1.10
1.31 1.24 1.17 1.16 1.11 1.06 1.02 0.95 0.93 0.90 0.79 0.73 0.69 0.63 0.57 0.52 0.49 0.47 0.46 0.45 0.53 0.54 0.51 0.52 0.53 0.52 0.47 0.46 0.45 0.49 0.54 0.61 0.67 0.73 0.87 0.89 0.83 0.90 1.06 1.10 1.07 1.03 0.98
1.12 1.08 1.00 1.01 1.06 1.07 1.03 1.01 0.95 0.86 0.77 0.70 0.67 0.61 0.59 0.53 0.48 0.45 0.46 0.48 0.49 0.45 0.41 0.41 0.42 0.45 0.45 0.46 0.47 0.54 0.57 0.62 0.58 0.64 0.70 0.76 0.83 0.86 0.87 0.92 1.01 1.12 1.10
1.00 1.00 0.90 0.89 0.95 1.01 0.99 0.94 0.83 0.75 0.72 0.62 0.59 0.60 0.59 0.57 0.47 0.41 0.41 0.41 0.43 0.40 0.38 0.38 0.38 0.35 0.35 0.35 0.41 0.56 0.67 0.64 0.58 0.62 0.78 0.94 0.99 0.97 0.87 0.89 1.01 1.10 1.10
0.81 0.88 0.90 0.88 0.87 0.86 0.86 0.87 0.78 0.68 0.66 0.63 0.62 0.62 0.60 0.54 0.45 0.39 0.39 0.38 0.38 0.40 0.43 0.43 0.40 0.32 0.28 0.29 0.36 0.49 0.55 0.53 0.60 0.78 0.98 1.08 1.06 0.98 0.87 0.82 0.90 1.01 1.08
0.81 0.91 0.90 0.86 0.77 0.75 0.85 0.89 0.79 0.68 0.65 0.64 0.64 0.63 0.57 0.55 0.48 0.43 0.41 0.38 0.37 0.38 0.40 0.39 0.35 0.32 0.27 0.29 0.31 0.38 0.41 0.50 0.71 0.93 1.03 1.00 0.85 0.74 0.73 0.70 0.72 0.82 0.94
0.84 0.88 0.87 0.81 0.77 0.77 0.80 0.82 0.77 0.70 0.62 0.59 0.59 0.59 0.53 0.47 0.43 0.39 0.37 0.35 0.34 0.34 0.34 0.33 0.33 0.34 0.35 0.41 0.42 0.41 0.48 0.65 0.82 0.93 0.96 0.87 0.74 0.66 0.64 0.66 0.63 0.73 0.78
0.85 0.83 0.82 0.83 0.82 0.76 0.70 0.66 0.64 0.61 0.55 0.51 0.51 0.50 0.44 0.41 0.35 0.28 0.30 0.31 0.31 0.33 0.34 0.38 0.47 0.52 0.53 0.54 0.58 0.64 0.68 0.71 0.73 0.83 0.83 0.75 0.64 0.59 0.58 0.57 0.62 0.67 0.74
0.78 0.72 0.73 0.77 0.76 0.70 0.59 0.51 0.48 0.42 0.34 0.33 0.34 0.32 0.32 0.29 0.25 0.26 0.28 0.31 0.27 0.27 0.32 0.46 0.64 0.69 0.68 0.65 0.63 0.64 0.68 0.66 0.69 0.70 0.68 0.65 0.62 0.57 0.55 0.51 0.54 0.58 0.66
0.69 0.64 0.61 0.65 0.64 0.56 0.50 0.45 0.39 0.29 0.24 0.19 0.17 0.18 0.19 0.21 0.20 0.19 0.23 0.26 0.24 0.28 0.36 0.57 0.68 0.70 0.71 0.63 0.59 0.56 0.55 0.56 0.54 0.56 0.58 0.59 0.59 0.56 0.55 0.52 0.51 0.54 0.59
0.59 0.58 0.53 0.50 0.54 0.50 0.46 0.45 0.45 0.32 0.22 0.18 0.15 0.17 0.18 0.21 0.21 0.22 0.21 0.24 0.27 0.31 0.38 0.52 0.59 0.64 0.63 0.55 0.52 0.52 0.52 0.51 0.48 0.48 0.52 0.53 0.54 0.53 0.53 0.53 0.51 0.51 0.54
0.48 0.43 0.42 0.42 0.42 0.40 0.39 0.37 0.37 0.42 0.40 0.33 0.21 0.17 0.19 0.22 0.25 0.23 0.20 0.27 0.34 0.34 0.38 0.44 0.48 0.51 0.52 0.49 0.46 0.45 0.45 0.46 0.45 0.44 0.45 0.47 0.49 0.48 0.46 0.46 0.46 0.43 0.46
0.38 0.35 0.34 0.32 0.32 0.32 0.33 0.30 0.30 0.33 0.37 0.37 0.34 0.26 0.23 0.26 0.28 0.26 0.24 0.26 0.32 0.34 0.36 0.38 0.39 0.39 0.39 0.40 0.42 0.42 0.39 0.39 0.39 0.38 0.38 0.41 0.43 0.42 0.42 0.38 0.36 0.32 0.36
0.33 0.29 0.26 0.24 0.24 0.25 0.25 0.25 0.26 0.26 0.27 0.32 0.32 0.26 0.23 0.29 0.34 0.32 0.26 0.25 0.26 0.29 0.31 0.35 0.35 0.33 0.32 0.31 0.31 0.32 0.33 0.32 0.30 0.31 0.36 0.40 0.41 0.40 0.37 0.33 0.32 0.35 0.37
0.24 0.21 0.18 0.18 0.19 0.19 0.18 0.17 0.18 0.18 0.22 0.25 0.22 0.17 0.20 0.28 0.34 0.32 0.28 0.26 0.27 0.29 0.32 0.33 0.30 0.29 0.28 0.27 0.27 0.27 0.27 0.28 0.28 0.30 0.34 0.38 0.37 0.35 0.32 0.29 0.26 0.25 0.26
0.20 0.20 0.16 0.14 0.14 0.15 0.15 0.13 0.12 0.13 0.15 0.16 0.15 0.13 0.18 0.22 0.28 0.30 0.27 0.26 0.27 0.30 0.30 0.30 0.29 0.28 0.26 0.25 0.23 0.23 0.23 0.26 0.30 0.32 0.33 0.34 0.31 0.27 0.24 0.23 0.22 0.20 0.20
0.16 0.17 0.16 0.13 0.12 0.12 0.11 0.10 0.08 0.08 0.10 0.10 0.10 0.11 0.13 0.17 0.21 0.27 0.28 0.26 0.26 0.25 0.24 0.24 0.24 0.23 0.21 0.19 0.18 0.18 0.20 0.22 0.23 0.25 0.29 0.29 0.25 0.23 0.20 0.21 0.21 0.22 0.22
0.15 0.14 0.13 0.11 0.11 0.11 0.10 0.08 0.07 0.07 0.09 0.10 0.09 0.10 0.12 0.14 0.16 0.23 0.28 0.27 0.24 0.22 0.20 0.18 0.17 0.17 0.16 0.15 0.14 0.14 0.14 0.15 0.15 0.18 0.22 0.22 0.20 0.20 0.18 0.17 0.18 0.20 0.22
0.14 0.12 0.11 0.09 0.09 0.10 0.09 0.07 0.07 0.07 0.08 0.09 0.09 0.09 0.09 0.08 0.11 0.16 0.21 0.25 0.24 0.20 0.16 0.14 0.12 0.11 0.12 0.12 0.11 0.11 0.12 0.13 0.12 0.13 0.17 0.19 0.16 0.17 0.19 0.20 0.21 0.21 0.21
0.11 0.11 0.09 0.08 0.08 0.07 0.07 0.07 0.07 0.08 0.09 0.08 0.08 0.09 0.08 0.08 0.10 0.11 0.13 0.16 0.19 0.19 0.15 0.12 0.10 0.08 0.09 0.10 0.10 0.09 0.09 0.09 0.10 0.11 0.15 0.19 0.18 0.17 0.16 0.18 0.20 0.22 0.23